Domov               UVHVVR             MKGP            O straneh              
ZDRAVSTVENO VARSTVO RASTLIN
  MREŽA AGROMET. POSTAJ
 ► PROGNOSTIČNA OBVESTILA
AGROMETEOROLOŠKI PODATKI -
ARSO
OBVLADOVANJE TVEGANJ ZARADI
NEUGODNIH VREMENSKIH RAZMER
  ► NARAVNE NESREČE
  ► SUŠA/MOČA
  ► NAMAKANJE
  ► ŽLED (gozdarstvo)
KARTOGRAFSKI PRIKAZI
SPLETNE POVEZAVE
PROJEKTI IN PUBLIKACIJE

AGROMETEOROLOŠKA MREŽA: VREMENSKE POSTAJE IN FENOLOŠKA OPAZOVANJA

Pregled podatkov za lokacijo Zbigovci, meteorološka postaja 25164

Pregled senzorjev na lokaciji

ID Ime Zadnja
vrednost
Datum
zadnje
spremembe
Tip
senzorja
1930 Padavine (mm) 0 mm 11.12.2017 10:00 Generic 0.2 mm
1931 Omočenost lista (U) 0 U 11.12.2017 10:00 A730WET
1932 Relativna vlaga 2 m (% RH) 71,48 % RH 11.12.2017 10:00 Generic 0 - 100 %
1933 Temperatura 2 m (°C) 6,74 °C 11.12.2017 10:00 Generic -40 - +60 °C

Pregled podatkov zadnjih 24 ur

Zap.
št.
Datum in čas Zbigovci
Omočenost
lista
Padavine Relativna
vlaga
2
m
Temperatura
2
m
0 11.12.2017 10:00 0 0 71,48 6,74
1 11.12.2017 09:30 0 0 73,58 6,35
2 11.12.2017 09:00 0 0 73,63 6,62
3 11.12.2017 08:30 0 0 73,28 5,59
4 11.12.2017 08:00 0 0 77,29 5,13
5 11.12.2017 07:30 2 0 77,73 4,81
6 11.12.2017 07:00 3 0 80,17 4,35
7 11.12.2017 06:30 3 0 83,13 4,42
8 11.12.2017 06:00 1 0 79,8 4,35
9 11.12.2017 05:30 0 0 77,78 3,91
10 11.12.2017 05:00 0 0 77,12 3,1
11 11.12.2017 04:30 0 0 81,17 2,69
12 11.12.2017 04:00 0 0 82,78 2,44
13 11.12.2017 03:30 0 0 80,73 2,78
14 11.12.2017 03:00 0 0 80,51 3,03
15 11.12.2017 02:30 0 0 82,03 2,47
16 11.12.2017 02:00 0 0 82,12 2,59
17 11.12.2017 01:30 0 0 80,22 2,69
18 11.12.2017 01:00 0 0 81,59 2,44
19 11.12.2017 00:30 0 0 81,39 2,39
20 11.12.2017 00:00 0 0 80,9 2,47
21 10.12.2017 23:30 0 0 79,73 2,42
22 10.12.2017 23:00 0 0 79,51 2,3
23 10.12.2017 22:30 0,6 78,39 2,32
24 10.12.2017 22:00 0,8 77,88 2,39
25 10.12.2017 21:30 1 74,8 2,54
26 10.12.2017 21:00 0,2 72,92 2,78
27 10.12.2017 20:30 0 0 71,89 2,69
28 10.12.2017 20:00 0 0 71,14 2,52
29 10.12.2017 19:30 0,2 73,06 2,3
30 10.12.2017 19:00 0 0 71,5 2,37
31 10.12.2017 18:30 0 0 72,01 2,05
32 10.12.2017 18:00 0 0 73,82 1,66
33 10.12.2017 17:30 0 0 72,65 1,51
34 10.12.2017 17:00 0 0 70,74 1,32
35 10.12.2017 16:30 0 0 71,5 0,88
36 10.12.2017 16:00 0 0 73,02 0,05
37 10.12.2017 15:30 0 0 78,9 -0,27
38 10.12.2017 15:00 0 0 76,17 -0,1
39 10.12.2017 14:30 0 0 75,95 -0,39
40 10.12.2017 14:00 0 0 74,51 -0,34
41 10.12.2017 13:30 0 0 73,55 -0,42
42 10.12.2017 13:00 0 0 71,48 -0,83
43 10.12.2017 12:30 0 0 70,79 -1,22
44 10.12.2017 12:00 0 0 69,5 -1,25
45 10.12.2017 11:30 0,2 67,62 -1,56
46 10.12.2017 11:00 0 0 68,28 -1,93
© 2011 Ministrstvo za kmetijstvo, gozdarstvo in prehrano. Vse pravice pridržane.